Location: *
(37.5724°S, 58.0067°E)
Time: 11:23:50
(UTC+00:00)

Nadezhda 4 Rocket - Pass Details

Date: 26 September 2020
Orbit: 949 x 992 km, 82.9° (Epoch: 29 October)

Event Time Altitude Azimuth Distance (km) Brightness Sun altitude
Rises 15:27:55 0° 10° (N) 3,644 6.7 -16.4°
Reaches altitude 10° 15:30:27 10° 15° (NNE) 2,711 6.0 -16.9°
Maximum altitude 15:36:27 52° 89° (E) 1,212 4.1 -18.0°
Drops below altitude 10° 15:42:34 10° 163° (SSE) 2,771 6.4 -19.2°
Sets 15:45:10 0° 167° (SSE) 3,731 7.1 -19.7°
